EW9355 Weather Reports


Display with metric or nautical units.
time (UTC)temp
F
wind
direction
speed
MPH
gust
MPH
rain 1hr
in
rain 24hr
in
rain mn
in
humidity
%
barometer
mb
20260505013020 76 147 0.0 3.0 0.00 0.00 0.00 67 1003.5
20260505011524 76 147 0.0 7.0 0.00 0.00 0.00 66 1003.4
20260505010015 77 215 0.0 3.0 0.00 0.00 0.00 65 1003.4
20260505004529 77 128 0.0 4.0 0.00 0.00 0.00 64 1003.5
20260505003014 78 128 0.0 6.0 0.00 0.00 0.00 63 1003.5
20260505001513 79 143 0.0 10.0 0.00 0.00 0.00 62 1003.8
20260505000021 79 194 0.0 12.0 0.00 0.00 0.00 61 1003.6
20260504234510 79 232 1.0 13.0 0.00 0.00 0.00 60 1003.9
20260504233010 79 129 0.0 10.0 0.00 0.00 0.00 61 1003.9
20260504231508 80 131 1.0 10.0 0.00 0.00 0.00 59 1004.0
20260504230014 81 146 2.0 10.0 0.00 0.00 0.00 57 1004.2
20260504224506 81 136 1.0 10.0 0.00 0.00 0.00 58 1004.4
20260504223005 81 188 1.0 11.0 0.00 0.00 0.00 57 1004.3
20260504221505 81 67 1.0 12.0 0.00 0.00 0.00 58 1004.3
20260504220002 81 173 2.0 10.0 0.00 0.00 0.00 56 1004.7
20260504214501 82 238 2.0 11.0 0.00 0.00 0.00 55 1004.7
20260504213139 82 248 1.0 12.0 0.00 0.00 0.00 54 1004.9
20260504211605 82 126 0.0 15.0 0.00 0.00 0.00 56 1005.1
20260504210055 81 157 2.0 9.0 0.00 0.00 0.00 56 1005.5
20260504204556 81 182 1.0 11.0 0.00 0.00 0.00 55 1005.6
20260504203112 81 180 2.0 17.0 0.00 0.00 0.00 56 1005.9
20260504201550 82 265 1.0 10.0 0.00 0.00 0.00 54 1006.3
20260504200051 81 247 1.0 10.0 0.00 0.00 0.00 54 1006.6
20260504194558 81 133 1.0 7.0 0.00 0.00 0.00 54 1006.9
20260504193053 81 142 1.0 10.0 0.00 0.00 0.00 54 1007.0
20260504191541 80 134 1.0 12.0 0.00 0.00 0.00 53 1007.2
20260504190041 80 152 3.0 11.0 0.00 0.00 0.00 53 1007.5
20260504184543 80 116 1.0 12.0 0.00 0.00 0.00 53 1007.7
20260504183035 79 259 1.0 11.0 0.00 0.00 0.00 53 1007.9
20260504181533 79 173 3.0 16.0 0.00 0.00 0.00 53 1008.2
20260504180031 78 224 2.0 14.0 0.00 0.00 0.00 53 1008.3
20260504174528 78 169 1.0 10.0 0.00 0.00 0.00 51 1008.8
20260504173034 77 240 2.0 10.0 0.00 0.00 0.00 50 1008.8
20260504171524 77 175 1.0 7.0 0.00 0.00 0.00 49 1009.1
20260504140103 66 198 0.0 7.0 0.00 0.00 0.00 71 1011.1
20260504081510 65 215 0.0 3.0 0.00 0.00 0.00 64 1011.2
20260504044556 68 107 0.0 1.0 0.00 0.00 0.00 56 1013.5
20260504043044 68 132 0.0 1.0 0.00 0.00 0.00 56 1013.5
20260504041542 69 91 0.0 1.0 0.00 0.00 0.00 55 1013.5
20260504040041 69 266 0.0 1.0 0.00 0.00 0.00 53 1013.6
20260504034550 70 166 0.0 1.0 0.00 0.00 0.00 51 1013.5
20260504033051 70 121 0.0 1.0 0.00 0.00 0.00 50 1013.5
20260504031538 71 109 0.0 0.0 0.00 0.00 0.00 49 1013.4
20260504030038 71 75 0.0 1.0 0.00 0.00 0.00 48 1013.3
20260504024544 72 145 0.0 2.0 0.00 0.00 0.00 47 1013.2
20260504023038 72 268 0.0 1.0 0.00 0.00 0.00 46 1013.3
20260504021538 73 186 0.0 2.0 0.00 0.00 0.00 45 1013.4
20260504020037 73 127 0.0 3.0 0.00 0.00 0.00 44 1013.1
20260504014539 74 148 0.0 3.0 0.00 0.00 0.00 44 1013.0